Regional Weather Roundup
Issued by NWS

Home | Current Version | Previous Version | Graphics & Text | Print | Product List | Glossary Off
Versions: 1 2 3 4 5 6 7 8 9 10 11 12 13 14 15 16 17 18 19 20 21 22 23 24 25 26 27 28 29 30 31 32 33 34 35 36 37 38 39 40 41 42 43 44 45 46 47 48 49 50

000
ASUS43 KLSX 281510
RWRMO

WEATHER SUMMARY FOR MISSOURI
NATIONAL WEATHER SERVICE SPRINGFIELD MO
1000 AM CDT THU APR 28 2016

NOTE: "FAIR" INDICATES FEW OR NO CLOUDS BELOW 12,000 FEET WITH NO
       SIGNIFICANT WEATHER AND/OR OBSTRUCTIONS TO VISIBILITY.
       CURRENT SKY AND/OR WEATHER CONDITIONS ARE NOT AVAILABLE FOR
       CHILLICOTHE AND FARMINGTON.

MOZ001>031-035>038-043-044-053-054-281600-
...NORTHERN AND WESTERN MISSOURI...

CITY           SKY/WX    TMP DP  RH WIND       PRES   REMARKS
KANSAS CTY INT CLOUDY    50  44  80 W13       29.90R
KANSAS C DTWN  CLOUDY    52  42  69 SW14      29.91R
LEE`S SUMMIT   CLOUDY    50  43  77 SW14      29.92R
ST JOSEPH      CLOUDY    50  46  86 W15       29.88R
CHILLICOTHE      N/A     51  48  89 SW6       29.87R
KIRKSVILLE     CLOUDY    52  44  74 SW13      29.85R

$$
MOZ066>068-077>081-088>096-101>105-281600-
...SOUTHWEST MISSOURI...

CITY           SKY/WX    TMP DP  RH WIND       PRES   REMARKS
SPRINGFIELD    SUNNY     58  40  51 NW10      29.94R
JOPLIN         SUNNY     57  41  55 NW10G17   29.96R
BRANSON        MOSUNNY   61  41  48 NW12      29.96R

$$
MOZ032>034-039>042-045>050-055>058-069>072-281600-
...CENTRAL MISSOURI...

CITY           SKY/WX    TMP DP  RH WIND       PRES   REMARKS
COLUMBIA       SUNNY     56  45  66 W15       29.89R
JEFFERSON CITY SUNNY     57  45  64 W14       29.88R
ROLLA          SUNNY     57  46  66 W15       29.88R
SEDALIA        MOSUNNY   53  43  68 W14       29.92R
WARRENSBURG    CLOUDY    50  41  71 W13       29.93R
OSAGE BEACH    SUNNY     57  39  51 SW9       29.92R

$$
MOZ051-052-059>065-281600-
...EAST CENTRAL MISSOURI...

CITY           SKY/WX    TMP DP  RH WIND       PRES   REMARKS
ST LOUIS INTL  MOSUNNY   65  49  56 SW13      29.85R
SPIRIT OF STL  MOSUNNY   62  49  62 W9        29.85R
ST CHARLES     MOSUNNY   62  48  60 W15       29.83R

$$
MOZ072>076-082>087-097>100-106>115-281600-
...SOUTH CENTRAL AND SOUTHEAST MISSOURI...

CITY           SKY/WX    TMP DP  RH WIND       PRES   REMARKS
CAPE GIRARDEAU SUNNY     68  55  63 SW10      29.88R
FARMINGTON     SUNNY     64  45  49 W9        29.87S
POPLAR BLUFF   SUNNY     68  47  46 W5        29.89S
WEST PLAINS    SUNNY     63  42  46 W15G24    29.91S

$$



USA.gov is the U.S. government's official web portal to all federal, state and local government web resources and services.